Weather History for Fort Knox, KY

Change the Weather History Date:

Wednesday, November 14, 2012

  Actual Average Record
Temperature  
Mean Temperature 36 °F -  
Max Temperature 45 °F 53 °F 86 °F (2004)
Min Temperature 28 °F 35 °F 18 °F (2014)
Degree Days  
Heating Degree Days 28    
Moisture  
Dew Point 26 °F    
Average Humidity 67    
Maximum Humidity 81    
Minimum Humidity 49    
Precipitation  
Precipitation 0.00 in - - ()
Sea Level Pressure  
Sea Level Pressure 30.43 in    
Wind  
Wind Speed 4 mph (NE)    
Max Wind Speed 9 mph    
Max Gust Speed -    
Visibility 10 miles    
Events      
Averages and records for this station are not official NWS values.
T = Trace of Precipitation, MM = Missing Value Source: NWS Daily Summary

Daily Weather History Graph

Daily Weather History Graph

Search for Another Location

Airport:

Trip Planner

Search our weather history database for the weather conditions in past years. The results will help you decide how hot, cold, wet, or windy it might be!

Date:

Astronomy

Nov. 14, 2012 Rise Set
Actual Time 7:23 AM EST 5:32 PM EST
Civil Twilight 6:55 AM EST 6:00 PM EST
Nautical Twilight 6:24 AM EST 6:32 PM EST
Astronomical Twilight 5:52 AM EST 7:03 PM EST
Moon 8:11 AM EST (11/14) 6:21 PM EST (11/14)
Length of Visible Light 11h 04m
Length of Day
10h 08m
New Moon, 1% of the Moon is Illuminated
Nov 14
New Moon
Nov 20
First Quarter
Nov 28
Full
Dec 6
Last Quarter
Dec 13
New

Hourly Weather History & Observations

Time (EST) Temp. Windchill Dew Point Humidity Pressure Visibility Wind Dir Wind Speed Gust Speed Precip Events Conditions
12:55 AM 32.4 °F - 22.3 °F 66% 30.49 in 10.0 mi Calm Calm - N/A   Clear
1:55 AM 31.3 °F 26.6 °F 22.5 °F 70% 30.46 in 10.0 mi NNE 4.6 mph - N/A   Clear
2:55 AM 28.8 °F 21.7 °F 22.8 °F 78% 30.47 in 10.0 mi North 6.9 mph - N/A   Partly Cloudy
3:55 AM 30.2 °F 25.4 °F 23.7 °F 77% 30.47 in 10.0 mi NNE 4.6 mph - N/A   Clear
4:55 AM 28.9 °F 22.8 °F 23.4 °F 80% 30.48 in 10.0 mi NNE 5.8 mph - N/A   Clear
5:55 AM 28.9 °F 21.9 °F 23.7 °F 81% 30.48 in 10.0 mi NNE 6.9 mph - N/A   Clear
6:55 AM 29.3 °F 22.3 °F 23.9 °F 80% 30.48 in 10.0 mi NNE 6.9 mph - N/A   Clear
7:55 AM 29.7 °F 24.7 °F 24.1 °F 80% 30.48 in 10.0 mi NNE 4.6 mph - N/A   Clear
8:55 AM 31.3 °F - 24.8 °F 77% 30.51 in 10.0 mi Calm Calm - N/A   Clear
9:55 AM 35.4 °F 31.5 °F 26.1 °F 69% 30.51 in 10.0 mi Variable 4.6 mph - N/A   Clear
10:55 AM 37.9 °F 31.5 °F 26.8 °F 64% 30.48 in 10.0 mi NE 9.2 mph - N/A   Clear
11:55 AM 40.8 °F 36.2 °F 26.4 °F 57% 30.48 in 10.0 mi NE 6.9 mph - N/A   Clear
12:55 PM 45.0 °F 40.1 °F 27.0 °F 49% 30.43 in 10.0 mi East 9.2 mph - N/A   Clear
1:55 PM 45.3 °F 41.1 °F 27.3 °F 49% 30.41 in 10.0 mi ENE 8.1 mph - N/A   Mostly Cloudy
2:55 PM 45.7 °F 42.0 °F 27.7 °F 49% 30.39 in 10.0 mi East 6.9 mph - N/A   Partly Cloudy
3:55 PM 45.9 °F 43.6 °F 27.9 °F 49% 30.38 in 10.0 mi Variable 4.6 mph - N/A   Mostly Cloudy
4:55 PM 44.2 °F 41.0 °F 28.2 °F 53% 30.38 in 10.0 mi NNE 5.8 mph - N/A   Clear
5:55 PM 39.0 °F 34.8 °F 30.2 °F 71% 30.38 in 10.0 mi North 5.8 mph - N/A   Mostly Cloudy
6:55 PM 39.0 °F 35.7 °F 27.9 °F 64% 30.38 in 10.0 mi NE 4.6 mph - N/A   Clear
7:55 PM 38.1 °F 34.6 °F 27.1 °F 65% 30.39 in 10.0 mi NNE 4.6 mph - N/A   Clear
8:55 PM 37.0 °F 32.4 °F 27.0 °F 67% 30.38 in 10.0 mi NNE 5.8 mph - N/A   Partly Cloudy
9:55 PM 34.9 °F 32.0 °F 26.6 °F 72% 30.37 in 10.0 mi NE 3.5 mph - N/A   Clear
10:55 PM 32.9 °F 29.8 °F 25.7 °F 75% 30.37 in 10.0 mi NE 3.5 mph - N/A   Clear
11:55 PM 32.4 °F - 25.7 °F 76% 30.37 in 10.0 mi Calm Calm - N/A   Clear